Location: Innsbruck
(47.2657°N, 11.3914°E)
Time: 02:03:54
(UTC+02:00)

Envisat - Pass Details

Date: 07 February 2023
Orbit: 763 x 765 km, 98.2° (Epoch: 28 March)

Event Time Altitude Azimuth Distance (km) Brightness Sun altitude
Rises 05:52:04 0° 2° (N) 3,245 6.2 -17.4°
Reaches altitude 10° 05:54:55 10° 346° (NNW) 2,313 5.3 -16.9°
Enters shadow 05:57:39 19° 314° (NW) 1,761 4.4 -16.4°
